GW4020 Weather Reports


Display with metric or nautical units.
time (UTC)temp
F
wind
direction
speed
MPH
gust
MPH
rain 1hr
in
rain 24hr
in
rain mn
in
humidity
%
barometer
mb
20260509201628 51 333 1.0 2.0 0.00 0.45 0.45 95 1009.3
20260509201125 50 346 1.0 1.0 0.00 0.45 0.45 95 1009.3
20260509200621 50 344 0.0 0.0 0.00 0.45 0.45 95 1009.4
20260509200117 50 17 0.0 1.0 0.00 0.45 0.45 95 1009.5
20260509195612 50 341 0.0 0.0 0.00 0.45 0.45 95 1009.7
20260509195102 50 354 0.0 1.0 0.05 0.45 0.45 95 1009.6
20260509194601 50 273 2.0 3.0 0.05 0.45 0.45 95 1009.6
20260509194100 50 339 1.0 2.0 0.00 0.44 0.44 95 1009.7
20260509193555 50 338 0.0 0.0 0.00 0.44 0.44 96 1009.7
20260509193051 50 347 1.0 2.0 0.07 0.44 0.44 96 1009.7
20260509192548 50 348 2.0 2.0 0.07 0.44 0.44 95 1009.7
20260509192042 50 332 1.0 2.0 0.00 0.43 0.43 95 1009.6
20260509191537 50 334 2.0 2.0 0.00 0.43 0.43 95 1009.7
20260509191033 50 329 1.0 2.0 0.00 0.43 0.43 95 1009.9
20260509190530 50 347 1.0 1.0 0.05 0.43 0.43 95 1009.8
20260509190028 50 344 1.0 1.0 0.05 0.43 0.43 95 1010.0
20260509185525 50 319 2.0 3.0 0.00 0.42 0.42 95 1009.8
20260509185021 50 338 1.0 2.0 0.00 0.42 0.42 95 1009.9
20260509184520 50 354 1.0 1.0 0.00 0.42 0.42 95 1010.0
20260509184015 50 349 1.0 1.0 0.00 0.42 0.42 95 1010.0
20260509183511 50 351 2.0 2.0 0.00 0.42 0.42 95 1010.0
20260509183007 50 344 2.0 2.0 0.00 0.42 0.42 96 1009.9
20260509182503 50 341 3.0 3.0 0.00 0.42 0.42 95 1010.0
20260509182000 50 342 0.0 1.0 0.07 0.42 0.42 95 1010.0
20260509181459 50 357 4.0 4.0 0.14 0.42 0.42 95 1009.8
20260509180956 50 322 1.0 2.0 0.07 0.41 0.41 95 1009.9
20260509180451 50 346 0.0 1.0 0.05 0.40 0.40 95 1009.9
20260509175949 50 356 2.0 2.0 0.05 0.40 0.40 95 1009.7
20260509175444 50 167 3.0 4.0 0.00 0.39 0.39 95 1009.8
20260509174941 50 339 2.0 2.0 0.00 0.39 0.39 95 1009.7
20260509174438 50 327 1.0 2.0 0.00 0.39 0.39 95 1009.7
20260509173933 50 240 4.0 4.0 0.07 0.39 0.39 95 1009.6
20260509173432 49 309 1.0 2.0 0.07 0.39 0.39 95 1009.8
20260509172929 49 4 0.0 0.0 0.05 0.38 0.38 95 1009.8
20260509172426 49 346 3.0 3.0 0.12 0.38 0.38 95 1009.8
20260509171922 49 288 3.0 3.0 0.12 0.37 0.37 95 1009.7
20260509171418 49 35 1.0 1.0 0.12 0.36 0.36 95 1010.0
20260509170915 49 332 4.0 4.0 0.12 0.35 0.35 95 1010.0
20260509170410 49 9 0.0 0.0 0.12 0.34 0.34 96 1010.1
20260509165907 49 332 1.0 1.0 0.07 0.33 0.33 95 1009.9
20260509165401 49 20 0.0 0.0 0.05 0.32 0.32 95 1009.7
20260509164857 49 326 2.0 3.0 0.05 0.32 0.32 95 1009.7
20260509164353 49 352 3.0 3.0 0.07 0.31 0.31 95 1009.7
20260509163849 49 340 2.0 3.0 0.07 0.31 0.31 95 1009.7
20260509163346 49 309 1.0 2.0 0.00 0.30 0.30 95 1009.8
20260509162845 49 347 4.0 4.0 0.05 0.30 0.30 94 1009.9
20260509162343 49 266 2.0 3.0 0.05 0.30 0.30 95 1009.6
20260509161840 49 81 2.0 3.0 0.00 0.29 0.29 94 1009.8
20260509161336 49 349 2.0 2.0 0.07 0.29 0.29 94 1009.8
20260509160832 49 342 2.0 2.0 0.07 0.29 0.29 94 1010.0
20260509160329 49 13 0.0 1.0 0.00 0.28 0.28 94 1010.1
20260509155823 49 336 2.0 3.0 0.00 0.28 0.28 94 1010.1
20260509155320 49 298 2.0 2.0 0.07 0.28 0.28 94 1010.0
20260509154816 49 339 1.0 1.0 0.07 0.28 0.28 94 1010.0
20260509154313 49 318 1.0 1.0 0.00 0.27 0.27 95 1010.0
20260509153810 49 327 0.0 1.0 0.05 0.27 0.27 94 1010.3
20260509153306 49 357 0.0 0.0 0.05 0.27 0.27 95 1010.2
20260509152803 49 356 0.0 1.0 0.07 0.26 0.26 94 1010.4
20260509152259 49 349 1.0 1.0 0.07 0.26 0.26 94 1010.3
20260509151756 49 70 3.0 3.0 0.00 0.25 0.25 94 1010.3
20260509151253 49 334 1.0 1.0 0.00 0.25 0.25 94 1010.3
20260509150751 49 358 0.0 0.0 0.05 0.25 0.25 94 1010.2
20260509150249 49 63 3.0 3.0 0.05 0.25 0.25 93 1010.4
20260509145746 49 357 0.0 0.0 0.07 0.24 0.24 94 1010.6
20260509145245 49 29 1.0 2.0 0.07 0.24 0.24 94 1010.4
20260509144742 49 321 1.0 1.0 0.05 0.23 0.23 94 1010.6
20260509144239 49 340 0.0 0.0 0.05 0.23 0.23 94 1010.4
20260509143736 48 10 1.0 1.0 0.00 0.22 0.22 94 1010.6
20260509143234 49 350 0.0 0.0 0.00 0.22 0.22 95 1010.7
20260509142730 49 337 1.0 1.0 0.07 0.22 0.22 95 1010.7
20260509142226 49 334 1.0 1.0 0.07 0.22 0.22 94 1010.7
20260509141721 49 336 2.0 2.0 0.05 0.21 0.21 95 1010.4
20260509141219 48 346 0.0 1.0 0.05 0.21 0.21 95 1010.6
20260509140715 49 354 1.0 1.0 0.07 0.20 0.20 95 1010.6
20260509140213 49 349 0.0 1.0 0.07 0.20 0.20 96 1010.6
20260509135710 48 345 1.0 2.0 0.07 0.20 0.20 96 1010.8
20260509135208 48 348 0.0 0.0 0.00 0.19 0.19 96 1010.6
20260509134705 48 9 0.0 0.0 0.05 0.19 0.19 96 1010.3
20260509134202 48 328 1.0 1.0 0.05 0.19 0.19 96 1010.7
20260509133659 48 12 0.0 1.0 0.00 0.18 0.18 97 1010.7
20260509133156 48 27 0.0 0.0 0.00 0.18 0.18 98 1010.7
20260509132654 48 345 0.0 0.0 0.07 0.18 0.18 99 1010.6
20260509132153 48 345 0.0 0.0 0.07 0.18 0.18 99 1010.6
20260509131648 48 345 0.0 0.0 0.00 0.17 0.17 99 1010.6
20260509131145 48 345 0.0 0.0 0.00 0.17 0.17 99 1010.4
20260509130641 48 345 0.0 0.0 0.00 0.17 0.17 99 1010.4
20260509130137 48 345 0.0 0.0 0.00 0.17 0.17 99 1010.4
20260509125634 48 345 0.0 1.0 0.00 0.17 0.17 99 1010.3
20260509125131 48 345 1.0 1.0 0.00 0.17 0.17 99 1010.3
20260509124627 48 345 0.0 0.0 0.05 0.17 0.17 99 1010.3
20260509124125 47 346 0.0 0.0 0.05 0.17 0.17 99 1010.2
20260509123623 47 345 0.0 0.0 0.00 0.16 0.16 99 1010.6
20260509123119 47 346 0.0 0.0 0.00 0.16 0.16 99 1010.4
20260509122615 47 346 0.0 0.0 0.00 0.16 0.16 99 1010.6
20260509122113 47 346 0.0 0.0 0.00 0.16 0.16 99 1010.6
20260509121609 46 346 0.0 0.0 0.00 0.16 0.16 99 1010.7
20260509121106 46 346 0.0 0.0 0.00 0.16 0.16 99 1010.7
20260509120604 46 346 0.0 0.0 0.00 0.16 0.16 99 1010.7
20260509115559 46 326 0.0 0.0 0.00 0.16 0.16 99 1010.8
20260509115057 46 344 0.0 0.0 0.07 0.16 0.16 99 1010.6
20260509114555 46 344 1.0 1.0 0.07 0.16 0.16 99 1010.4
20260509114054 46 344 0.0 0.0 0.00 0.15 0.15 99 1010.6
20260509113552 46 344 0.0 1.0 0.00 0.15 0.15 99 1010.2
20260509113049 46 346 0.0 0.0 0.00 0.15 0.15 99 1010.4
20260509112545 46 346 0.0 0.0 0.00 0.15 0.15 99 1010.3
20260509112042 46 346 0.0 0.0 0.00 0.15 0.15 99 1010.4
20260509111539 45 346 0.0 0.0 0.00 0.15 0.15 99 1010.4
20260509111036 45 346 0.0 0.0 0.00 0.15 0.15 99 1010.4
20260509110533 45 346 0.0 0.0 0.00 0.15 0.15 99 1010.4
20260509110030 45 346 0.0 0.0 0.00 0.15 0.15 99 1010.4
20260509105529 45 346 0.0 0.0 0.00 0.15 0.15 99 1010.3
20260509105026 45 346 0.0 0.0 0.00 0.15 0.15 99 1010.4
20260509104522 45 346 0.0 0.0 0.00 0.15 0.15 99 1010.4
20260509104019 45 346 0.0 0.0 0.00 0.15 0.15 99 1010.4
20260509103517 45 345 0.0 0.0 0.00 0.15 0.15 99 1010.4
20260509103015 45 345 0.0 0.0 0.00 0.15 0.15 99 1010.7
20260509102512 45 345 0.0 0.0 0.00 0.15 0.15 99 1010.7
20260509102009 45 345 0.0 0.0 0.00 0.15 0.15 99 1010.6
20260509101505 45 345 0.0 0.0 0.00 0.15 0.15 99 1010.4
20260509101002 45 345 0.0 0.0 0.00 0.15 0.15 99 1010.6
20260509100459 45 345 0.0 0.0 0.00 0.15 0.15 99 1010.1
20260509095956 45 344 0.0 0.0 0.00 0.15 0.15 99 1010.6
20260509095453 45 345 0.0 0.0 0.00 0.15 0.15 99 1010.6
20260509094950 45 344 0.0 0.0 0.00 0.15 0.15 99 1010.6
20260509094447 45 350 0.0 0.0 0.00 0.15 0.15 99 1010.6
20260509093944 45 350 0.0 0.0 0.00 0.15 0.15 99 1010.4
20260509093442 45 350 0.0 0.0 0.07 0.15 0.15 99 1010.7
20260509092940 45 350 0.0 0.0 0.07 0.15 0.15 99 1011.1
20260509092437 45 350 0.0 0.0 0.05 0.14 0.14 99 1010.8
20260509091936 45 350 0.0 0.0 0.05 0.14 0.14 99 1010.7
20260509091432 45 350 0.0 0.0 0.05 0.14 0.14 99 1010.7
20260509090929 45 350 0.0 0.0 0.00 0.13 0.13 99 1010.6
20260509090427 45 350 0.0 0.0 0.00 0.13 0.13 99 1010.6
20260509085924 45 350 0.0 0.0 0.00 0.13 0.13 99 1010.6
20260509085421 45 350 0.0 0.0 0.00 0.13 0.13 99 1010.4
20260509084917 45 350 0.0 0.0 0.00 0.13 0.13 99 1010.4
20260509084414 45 350 0.0 0.0 0.00 0.13 0.13 99 1010.4
20260509083912 45 350 0.0 0.0 0.00 0.13 0.13 99 1010.4
20260509083409 45 350 0.0 0.0 0.00 0.13 0.13 99 1010.8
20260509082905 45 350 0.0 0.0 0.00 0.13 0.13 99 1010.7
20260509082403 45 350 0.0 0.0 0.00 0.13 0.13 99 1010.6
20260509081859 45 350 0.0 0.0 0.00 0.13 0.13 99 1010.7
20260509081356 45 350 0.0 0.0 0.00 0.13 0.13 99 1010.6
20260509080854 45 350 0.0 0.0 0.00 0.13 0.13 99 1010.9
20260509080352 45 350 0.0 0.0 0.07 0.13 0.13 99 1010.8
20260509075850 45 350 0.0 0.0 0.07 0.13 0.13 99 1011.2
20260509075347 45 350 0.0 0.0 0.00 0.12 0.12 99 1011.1
20260509074844 45 350 0.0 0.0 0.00 0.12 0.12 99 1011.3
20260509074342 45 350 0.0 0.0 0.00 0.12 0.12 99 1011.3
20260509073837 45 350 0.0 0.0 0.00 0.12 0.12 99 1011.4
20260509073334 45 350 0.0 0.0 0.05 0.12 0.12 99 1011.3
20260509072831 45 350 0.0 0.0 0.05 0.12 0.12 99 1011.3
20260509072327 45 350 0.0 0.0 0.00 0.11 0.11 99 1011.4
20260509071824 45 350 0.0 0.0 0.07 0.11 0.11 99 1011.3
20260509071321 45 350 0.0 0.0 0.07 0.11 0.11 99 1011.4
20260509070818 45 350 0.0 0.0 0.07 0.11 0.11 99 1011.3
20260509070315 45 350 0.0 0.0 0.05 0.10 0.10 99 1011.6
20260509065811 45 350 0.0 0.0 0.05 0.10 0.10 99 1011.7
20260509065307 45 350 0.0 0.0 0.07 0.09 0.09 99 1011.6
20260509064803 45 350 0.0 0.0 0.12 0.09 0.09 99 1011.6
20260509064301 45 350 0.0 0.0 0.12 0.08 0.08 99 1011.7
20260509063759 45 350 0.0 0.0 0.07 0.07 0.07 99 1011.6
20260509063255 45 350 0.0 0.0 0.00 0.06 0.06 99 1011.7
20260509062752 45 350 0.0 0.0 0.05 0.06 0.06 99 1011.7
20260509062249 45 350 0.0 0.0 0.05 0.06 0.06 99 1011.8
20260509061746 45 350 0.0 0.0 0.00 0.05 0.05 99 1011.8
20260509061244 45 350 0.0 0.0 0.07 0.05 0.05 99 1011.7
20260509060741 45 350 0.0 0.0 0.07 0.05 0.05 99 1011.8
20260509060237 45 350 0.0 0.0 0.05 0.04 0.04 99 1011.8
20260509055733 45 350 0.0 0.0 0.05 0.04 0.04 99 1012.0
20260509055229 45 350 0.0 0.0 0.00 0.03 0.03 99 1012.0
20260509054726 45 350 0.0 0.0 0.07 0.03 0.03 99 1012.0
20260509054223 45 350 0.0 0.0 0.07 0.03 0.03 99 1012.0
20260509053721 45 350 0.0 0.0 0.00 0.02 0.02 99 1012.1
20260509053218 45 350 0.0 0.0 0.00 0.02 0.02 98 1012.0
20260509052716 45 350 0.0 0.0 0.00 0.02 0.02 98 1012.0
20260509052213 45 350 0.0 0.0 0.00 0.02 0.02 98 1012.0
20260509051711 45 350 0.0 0.0 0.00 0.02 0.02 98 1011.8
20260509051208 45 350 0.0 0.0 0.07 0.02 0.02 98 1011.7
20260509050705 45 350 0.0 0.0 0.07 0.02 0.02 98 1011.8
20260509050202 45 350 0.0 0.0 0.05 0.01 0.01 98 1011.8
20260509045659 45 350 0.0 0.0 0.05 0.01 0.01 98 1011.7
20260509045156 45 350 0.0 0.0 0.05 0.01 0.01 98 1011.7
20260509044653 45 350 0.0 0.0 0.00 0.00 0.00 98 1011.8
20260509044150 45 350 0.0 0.0 0.00 0.00 0.00 98 1011.6
20260509043647 45 350 0.0 0.0 0.00 0.00 0.00 98 1011.7
20260509043142 45 350 0.0 0.0 0.00 0.00 0.00 98 1011.7
20260509042639 45 350 0.0 0.0 0.00 0.00 0.00 98 1011.7
20260509042135 45 350 0.0 0.0 0.00 0.00 0.00 98 1011.9
20260509041632 45 350 0.0 0.0 0.00 0.00 0.00 97 1011.8
20260509041129 45 350 0.0 0.0 0.00 0.00 0.00 97 1011.7
20260509040628 45 350 0.0 0.0 0.00 0.00 0.00 97 1011.8
20260509040125 45 350 1.0 1.0 0.00 0.00 0.00 97 1011.9
20260509035621 44 1 1.0 1.0 0.00 0.03 0.03 97 1012.0
20260509035118 44 1 0.0 0.0 0.07 0.03 0.03 97 1012.2
20260509034616 44 2 0.0 0.0 0.07 0.03 0.03 97 1012.3
20260509034113 43 2 0.0 0.0 0.00 0.02 0.02 97 1012.2
20260509033609 43 2 0.0 0.0 0.00 0.02 0.02 97 1012.2
20260509033106 43 2 0.0 0.0 0.00 0.02 0.02 97 1012.1
20260509032604 43 2 0.0 0.0 0.00 0.02 0.02 97 1012.1
20260509032100 43 2 0.0 0.0 0.00 0.02 0.02 97 1012.0
20260509031558 43 2 0.0 0.0 0.00 0.02 0.02 97 1012.2
20260509031055 42 2 0.0 0.0 0.00 0.02 0.02 97 1012.1
20260509030554 42 2 0.0 0.0 0.00 0.02 0.02 97 1012.1
20260509030050 42 0 0.0 0.0 0.00 0.02 0.02 97 1012.2
20260509025546 42 0 0.0 0.0 0.00 0.02 0.02 97 1012.1
20260509025042 42 0 0.0 0.0 0.00 0.02 0.02 97 1012.0
20260509024538 42 0 0.0 0.0 0.00 0.02 0.02 96 1012.3
20260509024034 42 0 0.0 0.0 0.00 0.02 0.02 96 1012.3
20260509023532 42 0 0.0 0.0 0.00 0.02 0.02 96 1012.2
20260509023029 42 0 0.0 0.0 0.00 0.02 0.02 95 1012.2
20260509022525 43 0 0.0 0.0 0.00 0.02 0.02 95 1012.1
20260509022023 43 0 0.0 0.0 0.00 0.02 0.02 95 1012.0
20260509021520 43 0 0.0 0.0 0.00 0.02 0.02 95 1012.2
20260509021017 43 0 0.0 0.0 0.00 0.02 0.02 94 1012.1
20260509020515 44 0 0.0 0.0 0.00 0.02 0.02 93 1012.1
20260509020012 44 0 0.0 0.0 0.00 0.02 0.02 93 1012.1
20260509015511 44 1 0.0 0.0 0.00 0.02 0.02 93 1012.3
20260509015008 44 5 0.0 0.0 0.00 0.02 0.02 92 1012.1
20260509014504 45 5 0.0 0.0 0.00 0.02 0.02 92 1012.1
20260509014000 45 5 0.0 0.0 0.00 0.02 0.02 91 1012.1
20260509013457 45 5 0.0 0.0 0.00 0.02 0.02 90 1012.1
20260509012953 46 5 0.0 0.0 0.00 0.02 0.02 89 1012.0
20260509012450 47 359 0.0 0.0 0.00 0.02 0.02 88 1011.9
20260509011947 47 349 0.0 0.0 0.00 0.02 0.02 87 1011.8
20260509011444 48 344 2.0 2.0 0.00 0.02 0.02 86 1011.8
20260509010942 48 342 1.0 1.0 0.00 0.02 0.02 85 1011.7
20260509010439 47 356 2.0 2.0 0.00 0.02 0.02 86 1011.8
20260509005936 47 26 2.0 3.0 0.00 0.02 0.02 90 1011.7
20260509005434 47 6 0.0 0.0 0.00 0.02 0.02 89 1011.7
20260509004929 47 348 0.0 0.0 0.00 0.02 0.02 89 1011.6
20260509004426 47 347 0.0 0.0 0.00 0.02 0.02 89 1011.5
20260509003924 47 344 1.0 2.0 0.00 0.02 0.02 88 1011.5
20260509003421 47 2 0.0 0.0 0.00 0.02 0.02 89 1011.4
20260509002917 47 16 0.0 0.0 0.00 0.02 0.02 88 1011.3
20260509002416 47 358 0.0 0.0 0.00 0.02 0.02 88 1011.3
20260509001912 48 340 0.0 0.0 0.00 0.02 0.02 87 1011.3
20260509001408 48 342 0.0 1.0 0.00 0.02 0.02 87 1011.3
20260509000905 48 334 2.0 2.0 0.00 0.02 0.02 87 1011.2
20260509000403 48 341 0.0 1.0 0.00 0.02 0.02 86 1011.1
20260508235859 48 26 1.0 1.0 0.00 0.02 0.02 86 1010.9
20260508235356 48 17 0.0 1.0 0.00 0.02 0.02 86 1011.2
20260508234853 49 327 1.0 1.0 0.00 0.02 0.02 85 1011.0
20260508234349 49 18 2.0 3.0 0.00 0.02 0.02 83 1011.1
20260508233848 50 349 2.0 2.0 0.00 0.02 0.02 82 1011.0
20260508233347 50 326 1.0 1.0 0.00 0.02 0.02 81 1011.0
20260508232844 50 344 0.0 0.0 0.00 0.02 0.02 79 1010.9
20260508232340 51 8 0.0 0.0 0.00 0.02 0.02 76 1010.9
20260508231838 51 330 1.0 1.0 0.00 0.02 0.02 75 1010.9
20260508231334 51 337 0.0 0.0 0.00 0.02 0.02 74 1011.0
20260508230831 51 350 0.0 0.0 0.00 0.02 0.02 74 1010.8
20260508230327 51 343 1.0 1.0 0.00 0.02 0.02 75 1010.7
20260508225826 51 340 1.0 1.0 0.00 0.02 0.02 73 1010.8
20260508225322 51 324 1.0 2.0 0.00 0.02 0.02 75 1010.8
20260508224820 51 332 0.0 1.0 0.00 0.02 0.02 76 1010.6
20260508224317 51 350 1.0 1.0 0.00 0.02 0.02 75 1010.6
20260508223815 51 350 2.0 2.0 0.00 0.02 0.02 74 1010.4
20260508223312 51 0 1.0 1.0 0.00 0.02 0.02 72 1010.6
20260508222809 52 338 3.0 4.0 0.00 0.02 0.02 72 1010.6
20260508222306 52 322 1.0 2.0 0.00 0.02 0.02 75 1010.3
20260508221803 51 334 1.0 1.0 0.00 0.02 0.02 74 1010.6
20260508221258 51 342 2.0 2.0 0.00 0.02 0.02 77 1010.6
20260508220755 51 342 2.0 2.0 0.00 0.02 0.02 78 1010.6
20260508220252 50 345 2.0 2.0 0.00 0.02 0.02 79 1010.8
20260508215743 50 345 0.0 0.0 0.00 0.02 0.02 78 1010.7
20260508215239 50 344 1.0 1.0 0.00 0.02 0.02 79 1010.7
20260508214736 50 348 0.0 0.0 0.00 0.02 0.02 78 1010.8
20260508214233 50 343 3.0 3.0 0.00 0.02 0.02 79 1010.9
20260508213730 50 343 2.0 2.0 0.00 0.02 0.02 78 1010.8
20260508213226 50 22 1.0 1.0 0.00 0.02 0.02 79 1010.9
20260508212723 50 26 1.0 1.0 0.00 0.02 0.02 79 1010.9
20260508212219 50 350 0.0 1.0 0.00 0.02 0.02 80 1011.0
20260508211715 50 339 4.0 4.0 0.00 0.02 0.02 81 1011.0
20260508211211 49 336 1.0 2.0 0.00 0.02 0.02 81 1011.0
20260508210708 49 340 1.0 1.0 0.00 0.02 0.02 82 1011.0
20260508210205 49 4 0.0 0.0 0.00 0.02 0.02 82 1011.3
20260508205702 48 344 1.0 1.0 0.00 0.02 0.02 85 1011.3
20260508205158 47 339 4.0 4.0 0.00 0.02 0.02 85 1011.4
20260508204655 47 351 3.0 3.0 0.00 0.02 0.02 86 1011.5
20260508204151 47 306 2.0 3.0 0.05 0.02 0.02 86 1011.8
20260508203647 48 323 4.0 6.0 0.05 0.02 0.02 83 1011.4
20260508203143 49 318 3.0 3.0 0.00 0.01 0.01 82 1011.5
20260508202640 50 275 3.0 3.0 0.00 0.01 0.01 75 1011.4
20260508202137 51 318 1.0 2.0 0.00 0.01 0.01 72 1011.2